GW6405 Weather Reports


time (UTC)temp
C
wind
direction
speed
KPH
gust
KPH
rain 1hr
cm
rain 24hr
cm
rain mn
cm
humidity
%
barometer
mb
20260506122946 18 170 0.0 0.0 0.00 0.00 0.00 92 1016.7
20260506122443 18 176 0.0 0.0 0.00 0.00 0.00 92 1016.8
20260506121941 18 194 0.0 0.0 0.00 0.00 0.00 92 1016.9
20260506121438 18 201 0.0 0.0 0.00 0.00 0.00 91 1016.6
20260506120935 18 142 0.0 0.0 0.00 0.00 0.00 91 1017.0
20260506120432 18 159 0.0 0.0 0.00 0.00 0.00 91 1016.8
20260506115929 18 140 0.0 0.0 0.00 0.00 0.00 91 1016.7
20260506115427 18 145 0.0 0.0 0.00 0.00 0.00 92 1016.5
20260506114925 18 139 0.0 0.0 0.00 0.00 0.00 92 1016.6
20260506114423 18 138 0.0 0.0 0.00 0.00 0.00 92 1016.5
20260506113921 17 141 0.0 0.0 0.00 0.00 0.00 92 1016.5
20260506113418 17 141 0.0 0.0 0.00 0.00 0.00 92 1016.3
20260506112914 17 136 0.0 0.0 0.00 0.00 0.00 92 1016.4
20260506112412 17 136 0.0 0.0 0.00 0.00 0.00 92 1016.4
20260506111909 17 155 0.0 0.0 0.00 0.00 0.00 92 1016.5
20260506111407 17 136 0.0 0.0 0.00 0.00 0.00 92 1016.6
20260506110904 17 141 0.0 0.0 0.00 0.00 0.00 92 1016.4
20260506110402 17 150 0.0 0.0 0.00 0.00 0.00 92 1016.3
20260506105858 17 173 0.0 0.0 0.00 0.00 0.00 92 1016.3
20260506105354 17 175 0.0 0.0 0.00 0.00 0.00 92 1016.4
20260506104852 17 149 0.0 0.0 0.00 0.00 0.00 92 1016.3
20260506104350 17 158 0.0 0.0 0.00 0.00 0.00 92 1016.1
20260506103847 17 143 0.0 0.0 0.00 0.00 0.00 91 1016.0
20260506103345 17 143 0.0 0.0 0.00 0.00 0.00 91 1015.9
20260506102842 17 187 0.0 0.0 0.00 0.00 0.00 91 1015.9
20260506102340 17 174 0.0 0.0 0.00 0.00 0.00 91 1015.7
20260506101837 17 136 0.0 0.0 0.00 0.00 0.00 91 1015.7
20260506101333 17 167 0.0 0.0 0.00 0.00 0.00 91 1015.5
20260506100831 17 143 0.0 0.0 0.00 0.00 0.00 91 1015.5
20260506100329 17 172 0.0 0.0 0.00 0.00 0.00 90 1015.4
20260506095827 17 137 0.0 0.0 0.00 0.00 0.00 90 1015.4
20260506095323 17 137 0.0 0.0 0.00 0.00 0.00 90 1015.3
20260506094820 17 146 0.0 0.0 0.00 0.00 0.00 90 1015.5
20260506094319 17 140 0.0 0.0 0.00 0.00 0.00 90 1015.5
20260506093817 17 147 0.0 0.0 0.00 0.00 0.00 90 1015.4
20260506093313 17 148 0.0 0.0 0.00 0.00 0.00 90 1015.4
20260506092812 17 145 0.0 0.0 0.00 0.00 0.00 90 1015.2
20260506092309 17 128 0.0 0.0 0.00 0.00 0.00 89 1015.1
20260506091806 17 147 0.0 0.0 0.00 0.00 0.00 89 1015.1
20260506091303 17 122 0.0 0.0 0.00 0.00 0.00 89 1015.0
20260506090801 17 142 0.0 0.0 0.00 0.00 0.00 88 1015.0
20260506090258 17 145 0.0 0.0 0.00 0.00 0.00 88 1015.0
20260506085755 17 147 0.0 0.0 0.00 0.00 0.00 88 1015.2
20260506085251 17 164 0.0 0.0 0.00 0.00 0.00 88 1015.1
20260506084748 17 155 0.0 0.0 0.00 0.00 0.00 87 1015.2
20260506084244 17 142 0.0 0.0 0.00 0.00 0.00 87 1015.1
20260506083741 17 141 0.0 0.0 0.00 0.00 0.00 86 1015.1
20260506083239 17 139 0.0 0.0 0.00 0.00 0.00 86 1015.2
20260506082736 17 146 0.0 0.0 0.00 0.00 0.00 86 1015.1
20260506082231 17 142 0.0 0.0 0.00 0.00 0.00 86 1015.0
20260506081730 17 135 0.0 0.0 0.00 0.00 0.00 85 1015.1
20260506081227 17 139 0.0 0.0 0.00 0.00 0.00 85 1015.2
20260506080725 17 141 0.0 0.0 0.00 0.00 0.00 85 1015.2
20260506080221 17 141 0.0 0.0 0.00 0.00 0.00 84 1015.5
20260506073205 16 129 0.0 0.0 0.00 0.00 0.00 83 1015.3
20260506072701 16 127 0.0 0.0 0.00 0.00 0.00 81 1015.2
20260506072159 16 128 0.0 0.0 0.00 0.00 0.00 80 1015.5
20260506071656 16 125 0.0 0.0 0.00 0.00 0.00 79 1015.5
20260506071154 16 125 0.0 0.0 0.00 0.00 0.00 79 1015.7
20260506070651 16 125 0.0 0.0 0.00 0.00 0.00 78 1015.6
20260506070148 16 125 0.0 0.0 0.00 0.00 0.00 78 1015.6
20260506062125 17 121 0.0 0.0 0.00 0.00 0.00 74 1015.8
20260506061621 17 129 0.0 0.0 0.00 0.00 0.00 75 1015.8
20260506061119 17 133 0.0 0.0 0.00 0.00 0.00 74 1016.1
20260506060617 17 149 0.0 0.0 0.00 0.00 0.00 72 1016.0
20260506060114 17 149 0.0 0.0 0.00 0.00 0.00 71 1015.9
20260506051046 18 166 0.0 0.0 0.00 0.00 0.00 66 1015.5
20260506050543 18 150 0.0 0.0 0.00 0.00 0.00 66 1015.5
20260506045034 18 141 0.0 0.0 0.00 0.00 0.00 65 1015.6
20260506044532 19 136 0.0 0.0 0.00 0.00 0.00 66 1015.7
20260506044028 19 149 0.0 0.0 0.00 0.00 0.00 64 1016.1
20260506043525 19 141 0.0 0.0 0.00 0.00 0.00 64 1015.8
20260506043024 19 148 0.0 0.0 0.00 0.00 0.00 65 1015.9
20260506042523 19 146 0.0 0.0 0.00 0.00 0.00 63 1015.9
20260506042020 19 162 0.0 0.0 0.00 0.00 0.00 62 1015.6
20260506041519 19 146 0.0 0.0 0.00 0.00 0.00 64 1015.5
20260506041015 19 143 0.0 0.0 0.00 0.00 0.00 63 1015.6
20260506040513 20 175 0.0 0.0 0.00 0.00 0.00 63 1015.7
20260506040009 20 159 0.0 0.0 0.00 0.00 0.00 61 1015.7
20260506035506 19 172 0.0 0.0 0.00 0.00 0.00 61 1015.6
20260506035002 19 140 0.0 0.0 0.00 0.00 0.00 63 1015.7
20260506034500 20 140 0.0 0.0 0.00 0.00 0.00 63 1015.8
20260506033957 20 187 0.0 0.0 0.00 0.00 0.00 62 1016.1
20260506033454 20 187 0.0 0.0 0.00 0.00 0.00 61 1015.9
20260506032951 20 181 0.0 0.0 0.00 0.00 0.00 61 1015.9
20260506032448 19 141 0.0 0.0 0.00 0.00 0.00 64 1015.9
20260506031944 19 162 0.0 0.0 0.00 0.00 0.00 64 1016.0
20260506031442 19 148 0.0 0.0 0.00 0.00 0.00 66 1015.8
20260506030940 18 148 0.0 0.0 0.00 0.00 0.00 70 1015.8
20260506030437 19 148 0.0 0.0 0.00 0.00 0.00 72 1015.8
20260506025934 19 149 0.0 0.0 0.00 0.00 0.00 71 1015.9
20260506025431 19 149 0.0 0.0 0.00 0.00 0.00 64 1015.8
20260506024928 20 149 0.0 0.0 0.00 0.00 0.00 61 1015.9
20260506024425 20 149 0.0 0.0 0.00 0.00 0.00 60 1015.7
20260506023920 20 160 0.0 0.0 0.00 0.00 0.00 59 1015.9
20260506023418 20 151 0.0 0.0 0.00 0.00 0.00 58 1015.6
20260506022914 20 157 0.0 0.0 0.00 0.00 0.00 59 1015.8
20260506022412 20 145 0.0 0.0 0.00 0.00 0.00 59 1015.6
20260506021910 20 151 0.0 0.0 0.00 0.00 0.00 59 1015.9
20260506021407 20 160 0.0 0.0 0.00 0.00 0.00 59 1015.9
20260506020903 20 161 0.0 0.0 0.00 0.00 0.00 59 1015.8
20260506020401 20 166 0.0 0.0 0.00 0.00 0.00 64 1015.8
20260506015858 20 149 0.0 0.0 0.00 0.00 0.00 62 1015.7
20260506015356 20 147 0.0 0.0 0.00 0.00 0.00 61 1015.8
20260506014852 20 151 0.0 0.0 0.00 0.00 0.00 58 1015.8
20260506014349 20 154 0.0 0.0 0.00 0.00 0.00 57 1015.7
20260506013846 20 162 0.0 0.0 0.00 0.00 0.00 57 1015.9
20260506013344 20 146 0.0 0.0 0.00 0.00 0.00 62 1015.7
20260506012840 20 146 0.0 0.0 0.00 0.00 0.00 63 1015.8
20260506012337 20 145 0.0 0.0 0.00 0.00 0.00 64 1015.7
20260506011834 20 149 0.0 0.0 0.00 0.00 0.00 66 1015.7
20260506011331 20 153 0.0 0.0 0.00 0.00 0.00 63 1015.7
20260506010828 20 142 0.0 0.0 0.00 0.00 0.00 57 1015.5
20260506010326 21 141 0.0 0.0 0.00 0.00 0.00 54 1015.4
20260506005823 21 141 0.0 0.0 0.00 0.00 0.00 54 1015.6
20260506005319 21 142 0.0 0.0 0.00 0.00 0.00 53 1015.6
20260506004815 21 141 0.0 0.0 0.00 0.00 0.00 53 1015.4
20260506004313 21 141 0.0 0.0 0.00 0.00 0.00 53 1015.5
20260506003809 22 142 0.0 0.0 0.00 0.00 0.00 53 1016.1
20260506003306 22 148 0.0 0.0 0.00 0.00 0.00 56 1015.9
20260506002802 22 152 0.0 0.0 0.00 0.00 0.00 55 1015.9
20260506002258 22 147 0.0 0.0 0.00 0.00 0.00 55 1015.8
20260506001754 22 146 0.0 0.0 0.00 0.00 0.00 53 1015.7
20260506001252 23 149 0.0 0.0 0.00 0.00 0.00 51 1015.6
20260506000748 23 153 0.0 0.0 0.00 0.00 0.00 50 1015.7
20260506000247 23 147 0.0 0.0 0.00 0.00 0.00 50 1015.6
20260505235743 23 162 1.6 4.8 0.00 0.00 0.00 49 1015.8
20260505235240 23 180 0.0 0.0 0.00 0.00 0.00 51 1015.6
20260505234737 23 154 0.0 0.0 0.00 0.00 0.00 48 1015.5
20260505234235 23 206 0.0 8.0 0.00 0.00 0.00 47 1015.6
20260505233731 23 192 0.0 0.0 0.00 0.00 0.00 49 1015.5
20260505233229 24 151 0.0 4.8 0.00 0.00 0.00 48 1015.6
20260505232726 24 142 0.0 4.8 0.00 0.00 0.00 47 1015.6
20260505232224 24 182 0.0 0.0 0.00 0.00 0.00 46 1015.6
20260505231720 24 196 0.0 8.0 0.00 0.00 0.00 47 1015.6
20260505231219 24 165 3.2 8.0 0.00 0.00 0.00 46 1015.6
20260505230717 24 157 0.0 0.0 0.00 0.00 0.00 46 1015.6
20260505230213 25 187 4.8 8.0 0.00 0.00 0.00 45 1015.4
20260505225709 25 215 4.8 8.0 0.00 0.00 0.00 45 1015.3
20260505225207 25 150 1.6 11.3 0.00 0.00 0.00 46 1015.5
20260505224702 25 172 0.0 8.0 0.00 0.00 0.00 47 1015.4
20260505224200 25 182 3.2 11.3 0.00 0.00 0.00 45 1015.3
20260505223657 25 177 4.8 8.0 0.00 0.00 0.00 44 1015.2
20260505223153 25 199 8.0 11.3 0.00 0.00 0.00 44 1015.3
20260505222649 25 198 11.3 16.1 0.00 0.00 0.00 44 1015.5
20260505222146 25 190 8.0 16.1 0.00 0.00 0.00 42 1015.4
20260505221643 25 204 3.2 11.3 0.00 0.00 0.00 44 1015.2
20260505221139 25 133 1.6 11.3 0.00 0.00 0.00 44 1015.2
20260505220637 25 229 6.4 11.3 0.00 0.00 0.00 44 1015.1
20260505220134 25 104 4.8 16.1 0.00 0.00 0.00 45 1015.2
20260505215632 25 154 9.7 11.3 0.00 0.00 0.00 43 1015.3
20260505215130 25 180 6.4 11.3 0.00 0.00 0.00 44 1015.1
20260505214628 25 201 3.2 8.0 0.00 0.00 0.00 44 1015.0
20260505214124 25 207 3.2 16.1 0.00 0.00 0.00 44 1015.4
20260505213622 25 162 3.2 11.3 0.00 0.00 0.00 43 1015.3
20260505213118 25 207 4.8 16.1 0.00 0.00 0.00 43 1015.4
20260505212614 25 150 4.8 8.0 0.00 0.00 0.00 44 1015.4
20260505212113 25 164 0.0 8.0 0.00 0.00 0.00 42 1015.4
20260505211609 25 145 4.8 11.3 0.00 0.00 0.00 43 1015.5
20260505211106 25 166 6.4 11.3 0.00 0.00 0.00 43 1015.4
20260505210602 25 173 0.0 0.0 0.00 0.00 0.00 43 1015.6
20260505210100 26 170 4.8 11.3 0.00 0.00 0.00 43 1015.7
20260505205557 26 219 1.6 11.3 0.00 0.00 0.00 44 1015.3
20260505205055 25 189 4.8 11.3 0.00 0.00 0.00 44 1015.5
20260505204552 25 19 0.0 8.0 0.00 0.00 0.00 45 1015.6
20260505204049 25 171 1.6 8.0 0.00 0.00 0.00 43 1015.5
20260505203545 25 135 4.8 16.1 0.00 0.00 0.00 43 1015.5
20260505203043 25 147 0.0 0.0 0.00 0.00 0.00 43 1015.7
20260505202539 25 203 8.0 11.3 0.00 0.00 0.00 44 1015.9
20260505202035 25 112 3.2 8.0 0.00 0.00 0.00 45 1015.8
20260505201532 26 202 0.0 4.8 0.00 0.00 0.00 44 1016.1
20260505201030 26 256 1.6 11.3 0.00 0.00 0.00 42 1016.0
20260505200527 26 94 3.2 8.0 0.00 0.00 0.00 40 1016.2
20260505200024 26 152 3.2 16.1 0.00 0.00 0.00 42 1016.1
20260505195520 27 100 0.0 4.8 0.00 0.00 0.00 41 1016.0
20260505195018 27 132 8.0 11.3 0.00 0.00 0.00 41 1016.0
20260505194515 27 142 0.0 11.3 0.00 0.00 0.00 40 1016.2
20260505194016 26 169 4.8 16.1 0.00 0.00 0.00 40 1016.3
20260505193513 26 169 1.6 8.0 0.00 0.00 0.00 42 1016.2
20260505193010 26 172 6.4 8.0 0.00 0.00 0.00 43 1016.4
20260505192509 26 120 4.8 11.3 0.00 0.00 0.00 40 1016.3
20260505192006 26 152 0.0 8.0 0.00 0.00 0.00 42 1016.3
20260505191504 26 180 4.8 8.0 0.00 0.00 0.00 43 1016.6
20260505191002 26 192 1.6 8.0 0.00 0.00 0.00 41 1016.4
20260505190456 26 137 3.2 8.0 0.00 0.00 0.00 44 1016.5
20260505185952 25 154 3.2 19.3 0.00 0.00 0.00 44 1016.6
20260505185450 26 202 0.0 11.3 0.00 0.00 0.00 43 1016.7
20260505184946 26 199 9.7 16.1 0.00 0.00 0.00 41 1017.0
20260505184442 26 170 4.8 8.0 0.00 0.00 0.00 39 1017.0
20260505183939 26 139 4.8 8.0 0.00 0.00 0.00 44 1017.2
20260505183436 26 174 1.6 8.0 0.00 0.00 0.00 47 1017.0
20260505182933 26 158 3.2 8.0 0.00 0.00 0.00 42 1017.2
20260505182430 27 147 0.0 4.8 0.00 0.00 0.00 42 1017.0
20260505181926 25 145 1.6 8.0 0.00 0.00 0.00 44 1017.4
20260505181424 25 169 4.8 11.3 0.00 0.00 0.00 44 1017.4
20260505180920 26 195 3.2 8.0 0.00 0.00 0.00 45 1017.6
20260505180416 25 249 4.8 11.3 0.00 0.00 0.00 43 1017.6
20260505175913 25 177 4.8 8.0 0.00 0.00 0.00 42 1017.9
20260505175410 25 205 8.0 11.3 0.00 0.00 0.00 43 1017.9
20260505174906 26 153 1.6 8.0 0.00 0.00 0.00 43 1018.0
20260505174404 26 184 4.8 8.0 0.00 0.00 0.00 43 1017.9
20260505173900 26 203 6.4 11.3 0.00 0.00 0.00 44 1017.9
20260505173356 26 201 3.2 8.0 0.00 0.00 0.00 43 1017.9
20260505172853 25 189 3.2 11.3 0.00 0.00 0.00 45 1018.3
20260505172351 25 217 8.0 16.1 0.00 0.00 0.00 44 1018.0
20260505171850 26 195 0.0 4.8 0.00 0.00 0.00 46 1017.9
20260505171347 26 206 8.0 11.3 0.00 0.00 0.00 45 1018.0
20260505170844 25 157 3.2 8.0 0.00 0.00 0.00 48 1018.2
20260505170341 24 151 3.2 8.0 0.00 0.00 0.00 46 1018.1
20260505165836 25 131 6.4 16.1 0.00 0.00 0.00 47 1018.2
20260505165332 25 199 3.2 8.0 0.00 0.00 0.00 46 1018.2
20260505164828 25 158 9.7 11.3 0.00 0.00 0.00 48 1018.2
20260505164325 25 213 3.2 11.3 0.00 0.00 0.00 47 1018.1
20260505163823 25 228 6.4 11.3 0.00 0.00 0.00 45 1018.2
20260505163322 26 174 0.0 8.0 0.00 0.00 0.00 45 1018.1
20260505162819 25 123 0.0 0.0 0.00 0.00 0.00 49 1018.3
20260505162315 25 143 3.2 11.3 0.00 0.00 0.00 50 1018.2
20260505161813 26 96 1.6 4.8 0.00 0.00 0.00 47 1018.0
20260505161310 25 178 3.2 4.8 0.00 0.00 0.00 49 1018.3
20260505160807 25 145 0.0 11.3 0.00 0.00 0.00 47 1018.3
20260505160305 25 169 3.2 8.0 0.00 0.00 0.00 49 1018.3
20260505153244 23 165 3.2 11.3 0.00 0.00 0.00 52 1018.7
20260505152742 23 236 0.0 16.1 0.00 0.00 0.00 56 1018.9
20260505152238 23 218 6.4 8.0 0.00 0.00 0.00 53 1018.7
20260505151737 24 203 4.8 8.0 0.00 0.00 0.00 51 1018.6
20260505151235 23 169 4.8 8.0 0.00 0.00 0.00 55 1018.5
20260505150732 23 232 6.4 8.0 0.00 0.00 0.00 55 1018.7
20260505150230 26 145 0.0 0.0 0.00 0.00 0.00 50 1018.5
20260505140200 26 148 0.0 0.0 0.00 0.00 0.00 51 1018.1
20260505130123 22 135 0.0 0.0 0.00 0.00 0.00 61 1017.4
20260505124613 22 97 0.0 0.0 0.00 0.00 0.00 60 1017.2
20260505124109 21 102 0.0 0.0 0.00 0.00 0.00 63 1017.3
20260505123605 20 112 0.0 0.0 0.00 0.00 0.00 68 1017.3